Location: Newark
(7.5381°N, 8.4972°W)
Time: 21:24:42
(UTC+00:00)

ISS - Visible Passes

Search period start: 18 March 2019 00:00
Search period end: 28 March 2019 00:00
Orbit: 406 x 411 km, 51.6° (Epoch: 19 March)

Date Brightness Start Highest point End Pass type
(mag) Time Alt. Az. Time Alt. Az. Time Alt. Az.
18 Mar -0.6 20:15:34 10° WNW 20:16:33 11° NW 20:17:33 10° NNW visible
19 Mar -3.6 06:08:05 10° NNW 06:11:20 71° NE 06:14:35 10° SE visible
19 Mar -1.5 19:22:44 10° WSW 19:25:32 26° NW 19:28:20 10° N visible
20 Mar -1.7 05:18:06 13° N 05:20:21 25° NE 05:23:08 10° ESE visible
21 Mar -2.5 06:03:25 12° WNW 06:05:43 23° SW 06:08:24 10° S visible
22 Mar -2.7 05:15:55 35° SSE 05:15:55 35° SSE 05:18:00 10° SSE visible
